{"data":{"norad_id":57156,"intl_designator":"2023-090BH","name":"STARLINK-6137","alt_names":[],"object_type":"PAYLOAD","status":"ACTIVE","operator":null,"country":"US","launch_date":"2023-06-23","launch_site_code":"AFETR","launch_vehicle":null,"mission":null,"orbit_class":"UNKNOWN","rcs_meters":null,"size_class":null,"mass_kg":null,"dimensions":null,"purposes":["comms"],"wikipedia_slug":null,"has_3d_model":false,"image_url":null,"decayed_at":null,"tle_current":{"epoch":"2026-05-25T03:46:16.820832Z","epoch_age_seconds":54859,"freshness":"FRESH","line1":"1 57156U 23090BH  26145.15713913 -.00000884  00000+0 -22605-4 0  9996","line2":"2 57156  42.9963 191.8614 0000635 319.3524  40.7280 15.27579666162239","mean_motion":15.27579666,"eccentricity":6.35e-5,"inclination_deg":42.9963,"raan_deg":191.8614,"arg_perigee_deg":319.3524,"mean_anomaly_deg":40.728,"bstar":-2.2605e-5,"rev_number":16223,"period_min":94.26676932475,"perigee_km":482.61441077539,"apogee_km":483.4857815366,"semimajor_km":6861.187096156,"source":"CELESTRAK","updated_at":"2026-05-25T13:38:18.251172Z"}}}